Regional Weather Roundup
Issued by NWS

Home | Current Version | Previous Version | Graphics & Text | Print | Product List | Glossary On
Versions: 1 2 3 4 5 6 7 8 9 10 11 12 13 14 15 16 17 18 19 20 21 22 23 24 25 26 27 28 29 30 31 32 33 34 35 36 37 38 39 40 41 42 43 44 45 46 47 48 49 50
000
ASUS43 KMKX 161211
RWRWI

WISCONSIN REGIONAL WEATHER ROUNDUP
NATIONAL WEATHER SERVICE MILWAUKEE/SULLIVAN WI
700 AM CDT TUE SEP 16 2014

NOTE: "FAIR" INDICATES FEW OR NO CLOUDS BELOW 12,000 FEET WITH NO
SIGNIFICANT WEATHER AND/OR OBSTRUCTIONS TO VISIBILITY.

WIZ001-002-006>008-014>016-023>028-161300-
NORTHWEST WISCONSIN

CITY           SKY/WX    TMP DP  RH WIND       PRES   REMARKS
SUPERIOR ARPT  CLEAR     39  37  91 SW8       30.11S WCI  33
6HR MIN TEMP:  38; 6HR MAX TEMP:  42;

ASHLAND        PTCLDY    44  37  76 SW10      30.12S
6HR MIN TEMP:  42; 6HR MAX TEMP:  45;

HAYWARD        PTCLDY    33  31  92 CALM      30.16S
6HR MIN TEMP:  32; 6HR MAX TEMP:  36;

SIREN          CLEAR     44  38  80 SW6       30.16S
6HR MIN TEMP:  35; 6HR MAX TEMP:  44;

RICE LAKE      FOG       35  34  97 CALM      30.19S VSB 3/4
6HR MIN TEMP:  35; 6HR MAX TEMP:  38;

LADYSMITH      CLEAR     35  34  96 CALM      30.19S
6HR MIN TEMP:  34; 6HR MAX TEMP:  40;

EAU CLAIRE     CLEAR     38  37  97 SW5       30.19S WCI  34
6HR MIN TEMP:  38; 6HR MAX TEMP:  43;

MENOMONIE      SUNNY     36  36  97 E3        30.20S
6HR MIN TEMP:  36; 6HR MAX TEMP:  43;

NEW RICHMOND   CLEAR     39  38  97 S3        30.19S
6HR MIN TEMP:  37; 6HR MAX TEMP:  40;

OSCEOLA        CLEAR     37  37 100 CALM      30.21S
6HR MIN TEMP:  36; 6HR MAX TEMP:  39;

$$

WIZ003>005-009-010-017-018-161300-
NORTH CENTRAL WISCONSIN

CITY           SKY/WX    TMP DP  RH WIND       PRES   REMARKS
WOODRUFF       CLEAR     37  34  90 CALM      30.14S
6HR MIN TEMP:  37; 6HR MAX TEMP:  39;

RHINELANDER    CLEAR     32  31  96 W6        30.16S WCI  26
6HR MIN TEMP:  31; 6HR MAX TEMP:  35;

EAGLE RIVER    CLEAR     32  32 100 CALM      30.13S
6HR MIN TEMP:  31; 6HR MAX TEMP:  35;

LAND O LAKES   CLEAR     30  29  99 CALM      30.14R
6HR MIN TEMP:  29; 6HR MAX TEMP:  31;

PHILLIPS       PTCLDY    35  33  94 CALM      30.16R
6HR MIN TEMP:  33; 6HR MAX TEMP:  38;

TOMAHAWK       CLEAR     30  30  97 CALM      30.17S
6HR MIN TEMP:  30; 6HR MAX TEMP:  34;

MEDFORD        CLEAR     37  36  94 CALM      30.18S
6HR MIN TEMP:  32; 6HR MAX TEMP:  38;

MERRILL        MOCLDY    31  30  97 CALM      30.18S
6HR MIN TEMP:  31; 6HR MAX TEMP:  35;

$$

WIZ029-030-035-036-043>047-161300-
CENTRAL WISCONSIN

CITY           SKY/WX    TMP DP  RH WIND       PRES   REMARKS
WAUSAU         CLEAR     38  36  92 CALM      30.18R
6HR MIN TEMP:  37; 6HR MAX TEMP:  41;

MOSINEE        CLEAR     37  36  93 W6        30.19S WCI  33
MARSHFIELD     CLEAR     37  35  92 W5        30.19S WCI  33
6HR MIN TEMP:  37; 6HR MAX TEMP:  41;

STEVENS POINT  CLEAR     32  31  96 CALM      30.20S
6HR MIN TEMP:  31; 6HR MAX TEMP:  37;

WAUPACA        CLEAR     41  40  95 CALM      30.20R
6HR MIN TEMP:  39; 6HR MAX TEMP:  43;

WAUTOMA        CLEAR     34  33  96 CALM      30.21S
6HR MIN TEMP:  34; 6HR MAX TEMP:  39;

WISC RAPIDS    CLEAR     35  35 100 CALM      30.22R
6HR MIN TEMP:  35; 6HR MAX TEMP:  39;

CAMP DOUGLAS   CLEAR     32  32 100 CALM      30.21S FOG
$$

WIZ011>013-019>022-031-037>040-048>050-161300-
NORTHEAST WISCONSIN

CITY           SKY/WX    TMP DP  RH WIND       PRES   REMARKS
ANTIGO         CLEAR     33  33  99 CALM      30.17S
6HR MIN TEMP:  32; 6HR MAX TEMP:  36;

STURGEON BAY   CLEAR     43  37  81 SW3       30.16S
6HR MIN TEMP:  43; 6HR MAX TEMP:  52;

GREEN BAY      CLEAR     39  38  96 W5        30.18S
6HR MIN TEMP:  39; 6HR MAX TEMP:  44;

MANITOWOC      CLEAR     42  40  92 W3        30.19S
6HR MIN TEMP:  42; 6HR MAX TEMP:  48;

APPLETON       NOT AVBL
CLINTONVILLE   CLEAR     37  36  93 CALM      30.19R
OSHKOSH        CLEAR     42  39  89 W6        30.19S
6HR MIN TEMP:  41; 6HR MAX TEMP:  48;

$$

WIZ032>034-041-042-053>061-161300-
SOUTHWEST WISCONSIN

CITY           SKY/WX    TMP DP  RH WIND       PRES   REMARKS
LA CROSSE      FOG       45  43  93 S5        30.22S VSB 1/4
6HR MIN TEMP:  44; 6HR MAX TEMP:  47;

SPARTA         FOG       33  33 100 CALM      30.23S VSB 1/4
6HR MIN TEMP:  32; 6HR MAX TEMP:  36;

VIROQUA        FAIR      39  39 100 CALM      30.21S
6HR MIN TEMP:  37; 6HR MAX TEMP:  43;

BOSCOBEL       FOG       43  42  97 SW3       30.24R VSB 1/4
6HR MIN TEMP:  43; 6HR MAX TEMP:  46;

PRAIRIE DU CHI DRZL/FOG  43  42  96 CALM      30.24R VSB 1/4
6HR MIN TEMP:  41; 6HR MAX TEMP:  45;

PLATTEVILLE      N/A     37  37  97 CALM      30.23S VSB<1/4
6HR MIN TEMP:  37; 6HR MAX TEMP:  45;

$$

WIZ056-057-062-063-064-067-068-161300-
SOUTH CENTRAL WISCONSIN

CITY           SKY/WX    TMP DP  RH WIND       PRES   REMARKS
BARABOO/DELLS    N/A     37  36  97 CALM      30.21S FOG
6HR MIN TEMP:  36; 6HR MAX TEMP:  42;

LONE ROCK      FOG       43  39  86 CALM      30.23S VSB<1/4
6HR MIN TEMP:  41; 6HR MAX TEMP:  46;

WATERTOWN      CLEAR     35  35 100 CALM      30.21R FOG
6HR MIN TEMP:  34; 6HR MAX TEMP:  45;

MADISON        CLEAR     38  37  97 CALM      30.22S
6HR MIN TEMP:  37; 6HR MAX TEMP:  43;

MIDDLETON      PTSUNNY   38  38 100 CALM      30.22S VSB 1/4
6HR MIN TEMP:  36; 6HR MAX TEMP:  45;

MONROE         CLEAR     45  39  81 NW3       30.22R
JANESVILLE     CLEAR     39  37  93 CALM      30.21R
$$

WIZ051-052-058>065-066-070>072-161300-
SOUTHEAST WISCONSIN

CITY           SKY/WX    TMP DP  RH WIND       PRES   REMARKS
MILWAUKEE      CLEAR     45  41  86 CALM      30.21R
6HR MIN TEMP:  44; 6HR MAX TEMP:  50;

WAUKESHA       CLEAR     37  37 100 CALM      30.21R
MILWAUKEE/TIMM CLEAR     41  39  93 CALM      30.21S
RACINE         CLEAR     45  41  86 NW7       30.22R
6HR MIN TEMP:  44; 6HR MAX TEMP:  48;

BURLINGTON     CLEAR     36  36 100 CALM      30.21S FOG
6HR MIN TEMP:  34; 6HR MAX TEMP:  43;

KENOSHA        CLEAR     41  40  96 W5        30.21R
6HR MIN TEMP:  40; 6HR MAX TEMP:  46;

FOND DU LAC    CLEAR     37  35  92 S3        30.20S
6HR MIN TEMP:  37; 6HR MAX TEMP:  46;

SHEBOYGAN      CLEAR     39  37  92 W5        30.19S
6HR MIN TEMP:  37; 6HR MAX TEMP:  49;

WEST BEND      CLEAR     39  37  93 CALM      30.20S
JUNEAU         FOG       37  37  99 CALM      30.22R VSB 1/2
6HR MIN TEMP:  37; 6HR MAX TEMP:  45;

$$

LSZ147-162-161300-
LAKE SUPERIOR

STATION/POSITION TIME  TEMP    WIND        PRES    WAVE
                       AIR SEA DIR/SP/G            HT/PER
                 (UTC) (F)     (DEG/KT/KT) (MB)    (FT/S)
W MID LAKE BUOY  1150   51 47  240/ 16/ 19 1017.3F
DEVILS ISLAND    1200   51     240/ 22/ 26 1018.4R
PORT WING        1140   46     200/  5/  7 1019.6S
SAXON HARBOR     1100   48     190/  9/ 12 1019.6
$$

LMZ867-665-643>646-161300-
LAKE MICHIGAN

STATION/POSITION TIME  TEMP    WIND        PRES    WAVE
                       AIR SEA DIR/SP/G            HT/PER
                 (UTC) (F)     (DEG/KT/KT) (MB)    (FT/S)
N MID LAKE BUOY  1150   53 59  270/ 10/ 12 1020.6R   1/ 3
NORTHPORT PIER   1100   47     280/  3/  6 1020.7S
KEWAUNEE LAKESHO 1100   42     300/  5/  6 1020.6R
SHEBOYGAN LAKESH 1200   47 49  270/  9/ 10 1022.8R
PORT WASHINGTON  1140   45     300/  6/  9 1023.0R
ATWATER BUOY     1200   49     280/  8/ 10 1023.5R
MILWAUKEE LAKESH 1100   47     300/  7/  8   N/A
S MID LAKE BUOY  1150   58 63  340/ 10/ 12 1022.2R
KENOSHA   LAKESH 1200   48     310/  9/ 13 1022.7R
$$

TC  - TEMPERATURE IN CELSIUS
VSB - VISIBILITY IN STATUTE MILES
WCI - WIND CHILL INDEX
HX  - HEAT INDEX




USA.gov is the U.S. government's official web portal to all federal, state and local government web resources and services.